Weather History for Hyannis, MA

Change the Weather History Date:

Monday, March 24, 2014

  Actual Average Record
Temperature  
Mean Temperature 24 °F -  
Max Temperature 30 °F 45 °F 63 °F (1938)
Min Temperature 17 °F 29 °F 15 °F (1940)
Degree Days  
Heating Degree Days 40    
Moisture  
Dew Point 6 °F    
Average Humidity 47    
Maximum Humidity 68    
Minimum Humidity 35    
Precipitation  
Precipitation 0.00 in - - ()
Sea Level Pressure  
Sea Level Pressure 30.08 in    
Wind  
Wind Speed 14 mph (North)    
Max Wind Speed 23 mph    
Max Gust Speed 34 mph    
Visibility 10 miles    
Events      
Averages and records for this station are not official NWS values.
T = Trace of Precipitation, MM = Missing Value Source: NWS Daily Summary

Daily Weather History Graph

Daily Weather History Graph

Search for Another Location

Airport:

Trip Planner

Search our weather history database for the weather conditions in past years. The results will help you decide how hot, cold, wet, or windy it might be!

Date:

Astronomy

Mar. 24, 2014 Rise Set
Actual Time 6:37 AM EDT 6:57 PM EDT
Civil Twilight 6:09 AM EDT 7:25 PM EDT
Nautical Twilight 5:37 AM EDT 7:58 PM EDT
Astronomical Twilight 5:03 AM EDT 8:31 PM EDT
Moon 2:09 AM EDT (3/24) 12:15 PM EDT (3/24)
Length of Visible Light 13h 15m
Length of Day
12h 20m
Last Quarter, 43% of the Moon is Illuminated
Mar 24
Last Quarter
Mar 30
New
Apr 7
First Quarter
Apr 15
Full
Apr 22
Last Quarter

Hourly Weather History & Observations

Time (EDT) Temp. Windchill Dew Point Humidity Pressure Visibility Wind Dir Wind Speed Gust Speed Precip Events Conditions
12:56 AM 28.9 °F 15.8 °F 9.0 °F 43% 30.00 in 10.0 mi North 20.7 mph 31.1 mph N/A   Overcast
1:56 AM 26.1 °F 11.3 °F 7.0 °F 44% 30.01 in 10.0 mi North 23.0 mph 33.4 mph N/A   Scattered Clouds
2:56 AM 24.1 °F 11.0 °F 3.9 °F 42% 30.02 in 10.0 mi North 16.1 mph 31.1 mph N/A   Clear
3:56 AM 24.1 °F 9.8 °F 9.0 °F 53% 30.04 in 10.0 mi North 19.6 mph 34.5 mph N/A   Overcast
4:56 AM 21.9 °F 8.2 °F 6.1 °F 51% 30.05 in 10.0 mi North 16.1 mph 26.5 mph N/A   Overcast
5:56 AM 21.9 °F 8.7 °F 8.1 °F 55% 30.08 in 10.0 mi NNW 15.0 mph 28.8 mph N/A   Overcast
6:56 AM 21.0 °F 8.1 °F 8.1 °F 57% 30.10 in 10.0 mi North 13.8 mph 21.9 mph N/A   Mostly Cloudy
7:56 AM 21.9 °F 10.4 °F 6.1 °F 51% 30.12 in 10.0 mi North 11.5 mph - N/A   Overcast
8:56 AM 23.0 °F 11.7 °F 6.1 °F 48% 30.12 in 10.0 mi NNW 11.5 mph 20.7 mph N/A   Mostly Cloudy
9:56 AM 24.1 °F 12.5 °F 6.1 °F 46% 30.13 in 10.0 mi NW 12.7 mph 20.7 mph N/A   Scattered Clouds
10:56 AM 25.0 °F 13.1 °F 5.0 °F 43% 30.12 in 10.0 mi NNW 13.8 mph 23.0 mph N/A   Scattered Clouds
11:56 AM 26.1 °F 14.5 °F 3.9 °F 39% 30.11 in 10.0 mi NNW 13.8 mph 25.3 mph N/A   Clear
12:56 PM 26.1 °F 15.0 °F 1.9 °F 35% 30.10 in 10.0 mi NNW 12.7 mph 20.7 mph N/A   Clear
1:56 PM 28.9 °F 18.6 °F 5.0 °F 36% 30.07 in 10.0 mi North 12.7 mph - N/A   Clear
2:56 PM 30.0 °F 21.7 °F 5.0 °F 35% 30.06 in 10.0 mi NNE 9.2 mph 18.4 mph N/A   Clear
3:56 PM 30.9 °F 22.2 °F 6.1 °F 35% 30.06 in 10.0 mi North 10.4 mph - N/A   Clear
4:56 PM 30.0 °F 21.7 °F 5.0 °F 35% 30.05 in 10.0 mi NE 9.2 mph - N/A   Clear
5:56 PM 30.0 °F 26.5 °F 5.0 °F 35% 30.06 in 10.0 mi SSW 3.5 mph - N/A   Clear
6:56 PM 27.0 °F 21.6 °F 7.0 °F 43% 30.06 in 10.0 mi South 4.6 mph - N/A   Clear
7:56 PM 25.0 °F - 8.1 °F 49% 30.09 in 10.0 mi Calm Calm - N/A   Clear
8:56 PM 21.9 °F - 8.1 °F 55% 30.11 in 10.0 mi Calm Calm - N/A   Clear
9:56 PM 19.9 °F - 9.0 °F 62% 30.12 in 10.0 mi Calm Calm - N/A   Clear
10:56 PM 19.0 °F - 9.0 °F 65% 30.13 in 10.0 mi Calm Calm - N/A   Clear
11:56 PM 17.1 °F - 8.1 °F 68% 30.14 in 10.0 mi Calm Calm - N/A   Clear